sat.trackr.live / text

‹ back to catalog

QZS-2 (QZSS/PRN 194)

NORAD 42738 · 2017-028A

PAYLOAD ACTIVE UNKNOWN

§ Identity

Operator
Country
JPN
Launch date
2017-06-01
Launch site
TANSC
Launch vehicle
Mass (kg)
RCS (m²)

Purposes: comms, nav

External: N2YO · Heavens-Above · Gunter

§ Orbital elements

Epoch: 2026-05-24T14:13:41.801952Z

Period
1,435.84 min
Inclination
39.4639°
Eccentricity
0.0760699
Mean motion
1.00289926 rev/d
Perigee alt
32,574.4 km
Apogee alt
38,988.6 km
Semi-major
42,159.6 km
B*
0.0000e+0
RAAN
243.5025°
Arg perigee
269.0109°
Mean anomaly
83.6451°
Rev number
739

§ Raw data

QZS-2 (QZSS/PRN 194)1 42738U 17028A   26144.59284493 -.00000234  00000+0  00000+0 0  99912 42738  39.4639 243.5025 0760699 269.0109  83.6451  1.00289926  7398

JSON: /api/v1/satellites/42738 · /tle

For live sub-satellite position, see the globe view (requires WebGL).

§ Visibility from observer

Set your observer location to see the next 7 days of passes ≥ 10°. The values pass through the URL so the page stays shareable.

No JS? Fill the form by hand. The geolocation button needs JavaScript.